[[{"header":{"parameterUnit":"m.s-1","parameterCategory":1,"la1":30.2991,"la2":30.254,"lo1":-89.0895,"lo2":-89.0444,"dy":0.0017,"dx":0.0017,"nx":28,"ny":28,"refTime":"2024-04-14T21:00:00:Z","depth":0,"parameterNumber":2,"parameterNumberName":"U-component_of_WINDS"},"data":[0,0,0,0,0,0,0,0,0,0,0,0,0,0,0,0,0,0,0,0,0,0,0,0,0,0,0,0,0,0,0,0,0,0,0,0,0,0,0,0,0,0,0,0,0,0,0,0,0,0,0,0,0,0,0,0,0,0,-3.542,-3.5421,0,-3.5522,-3.5523,-3.5524,-3.5489,-3.5487,-3.5485,-3.5483,-3.5589,-3.5594,-3.5599,0,0,0,0,0,0,0,0,0,0,0,0,0,-3.5197,-3.5201,-3.5419,-3.5421,-3.5422,-3.5521,-3.5523,-3.5524,-3.549,-3.5487,-3.5484,-3.5482,-3.5587,-3.5593,-3.5599,0,0,0,0,0,0,0,0,0,0,0,0,0,-3.5296,-3.5203,-3.5419,-3.5417,-3.5417,-3.5521,-3.5523,-3.5525,-3.549,-3.5487,-3.5483,-3.548,-3.5585,-3.5593,-3.56,-3.5713,0,0,-3.5622,-3.5626,0,0,0,0,0,0,0,0,-3.529,-3.5304,-3.5416,-3.5417,-3.5418,-3.5489,-3.5483,-3.5588,-3.5491,-3.5463,-3.5483,-3.5479,-3.5559,-3.5568,-3.5595,-3.5718,-3.5722,-3.5623,-3.5628,-3.5631,-3.5633,0,0,0,0,0,0,0,-3.5284,-3.53,-3.546,-3.5417,-3.5419,-3.5411,-3.5422,-3.5503,-3.5528,-3.5465,-3.5463,-3.5475,-3.5559,-3.5588,-3.5597,-3.5724,-3.5623,-3.563,-3.5634,-3.5637,-3.5946,-3.5949,0,0,0,0,0,0,-3.5276,-3.5294,-3.5457,-3.5463,-3.5345,-3.5418,-3.543,-3.547,-3.5527,-3.5533,-3.5478,-3.5473,-3.5577,-3.5588,-3.56,-3.5736,-3.5631,-3.5638,-3.5642,-3.5942,-3.5947,-3.5951,0,0,0,0,0,0,-3.5271,-3.5291,-3.5452,-3.5378,-3.5398,-3.5425,-3.5471,-3.5474,-3.5502,-3.5537,-3.5542,-3.5502,-3.5574,-3.559,-3.5685,-3.5739,-3.5641,-3.5648,-3.5938,-3.5943,-3.5949,-3.6009,0,0,0,0,0,0,-3.5265,-3.5289,-3.5332,-3.5379,-3.5402,-3.5535,-3.5474,-3.5478,-3.5515,-3.551,-3.5561,-3.5567,-3.5573,-3.5674,-3.5693,-3.5748,-3.5653,-3.5933,-3.594,-3.5947,-3.6002,-3.6016,-3.6028,0,0,0,0,0,-3.5257,-3.5345,-3.5334,-3.5354,-3.5456,-3.5538,-3.5551,-3.5556,-3.5519,-3.5563,-3.5585,-3.5565,-3.5731,-3.5684,-3.5705,-3.5763,-3.5929,-3.5938,-3.5946,-3.5996,-3.6013,-3.6027,0,0,0,0,0,0,-3.5303,-3.5351,-3.5339,-3.5445,-3.5488,-3.5532,-3.5586,-3.5573,-3.5628,-3.5621,-3.5625,-3.5637,-3.5735,-3.5759,-3.5706,-3.5876,-3.5825,-3.5838,-3.5856,-3.5872,-3.5885,-3.5877,-3.566,0,0,0,0,0,-3.5326,-3.5388,-3.5427,-3.5516,-3.5538,-3.5559,-3.5595,-3.5595,-3.564,-3.5658,-3.5687,-3.5732,-3.5794,-3.5835,-3.5894,-3.6006,-3.6017,-3.6056,-3.6069,-3.608,-3.609,-3.6152,-3.617,-3.5978,-3.5978,-3.5978,0,0,-3.5373,-3.5406,-3.5445,-3.5526,-3.5559,-3.5624,-3.5574,-3.5645,-3.5693,-3.5669,-3.576,-3.5783,-3.5834,-3.5938,-3.5985,-3.5961,-3.6146,-3.609,-3.6098,-3.6104,-3.6162,-3.618,-3.6197,-3.5984,-3.5983,-3.5982,0,0,-3.5491,-3.5523,-3.5601,-3.5635,-3.5686,-3.5699,-3.5718,-3.5765,-3.578,-3.5871,-3.5854,-3.5913,-3.6019,-3.6056,-3.6089,-3.6223,-3.6206,-3.6242,-3.6308,-3.6368,-3.6383,-3.6397,-3.6444,-3.6461,-3.6253,-3.6253,-3.6253,0,-3.5543,-3.5639,-3.5643,-3.5715,-3.5751,-3.5732,-3.5812,-3.5845,-3.5913,-3.5939,-3.591,-3.6045,-3.6077,-3.619,-3.6223,-3.625,-3.6272,-3.6236,-3.6381,-3.6394,-3.6407,-3.6452,-3.647,-3.6257,-3.6257,-3.6256,-3.6256,0,-3.5701,-3.5768,-3.5825,-3.5891,-3.5934,-3.6009,-3.6025,-3.6068,-3.6065,-3.6082,-3.6176,-3.6215,-3.6282,-3.6309,-3.6307,-3.6422,-3.6405,-3.6379,-3.6328,-3.6429,-3.6472,-3.6489,-3.6263,-3.6262,-3.626,-3.6259,0,0,-3.585,-3.5917,-3.5937,-3.5967,-3.6022,-3.6075,-3.615,-3.6215,-3.6252,-3.63,-3.6364,-3.6456,-3.6432,-3.6469,-3.6471,-3.6524,-3.6628,-3.6492,-3.6493,-3.6515,-3.6757,-3.6775,-3.6795,-3.6618,-3.6621,-3.6624,-3.6752,0,-3.5972,-3.6103,-3.6109,-3.6229,-3.6291,-3.6275,-3.6341,-3.6382,-3.6401,-3.6457,-3.6478,-3.6542,-3.6507,-3.6529,-3.6581,-3.6604,-3.6676,-3.6595,-3.6677,-3.668,-3.6664,-3.6818,-3.6837,-3.6956,-3.6769,-3.6772,-3.6774,0,-3.6132,-3.6184,-3.631,-3.6357,-3.6383,-3.6442,-3.6502,-3.6556,-3.6604,-3.6614,-3.6656,-3.6651,-3.6729,-3.6676,-3.6785,-3.6729,-3.6764,-3.6781,-3.6785,-3.6792,-3.6732,-3.6828,-3.6995,-3.7012,-3.6801,-3.6799,-3.6797,0,-3.6227,-3.6329,-3.6418,-3.6444,-3.6501,-3.6542,-3.6568,-3.6612,-3.6651,-3.6705,-3.673,-3.6792,-3.6826,-3.6875,-3.6887,-3.6847,-3.6995,-3.6943,-3.7006,-3.7005,-3.7036,-3.7034,-3.721,-3.706,-3.706,-3.706,-3.7059,0,-3.6362,-3.644,-3.6461,-3.6515,-3.6602,-3.6609,-3.6695,-3.6718,-3.6758,-3.6817,-3.6808,-3.6864,-3.6877,-3.6936,-3.6947,-3.7035,-3.705,-3.7061,-3.7062,-3.7061,-3.7059,-3.7082,-3.7074,-3.7065,-3.7063,-3.7063,-3.7062,0,-3.6482,-3.65,-3.6595,-3.6641,-3.6655,-3.6717,-3.6757,-3.681,-3.6827,-3.6902,-3.6921,-3.6948,-3.7018,-3.7035,-3.7118,-3.7125,-3.7229,-3.7223,-3.7212,-3.7212,-3.7272,-3.7266,-3.7468,-3.7495,-3.7329,-3.7331,-3.7332,0,-3.6567,-3.6626,-3.6679,-3.6717,-3.6745,-3.6807,-3.6847,-3.6857,-3.6899,-3.6958,-3.7004,-3.7072,-3.7126,-3.7238,-3.7266,-3.7329,-3.7325,-3.7391,-3.7334,-3.7331,-3.7325,-3.7321,-3.7327,-3.7401,-3.7403,-3.7405,-3.7406,0,-3.6715,-3.6721,-3.6778,-3.6838,-3.6886,-3.6934,-3.698,-3.7013,-3.7029,-3.7077,-3.7147,-3.719,-3.7274,-3.7342,-3.7406,-3.7434,-3.7423,-3.7424,-3.7442,-3.744,-3.7431,-3.7436,-3.7241,-3.7419,-3.7418,-3.7417,-3.7416,-3.7415,-3.6819,-3.6871,-3.6916,-3.698,-3.7016,-3.706,-3.7112,-3.7136,-3.7194,-3.7263,-3.7266,-3.7343,-3.739,-3.7475,-3.7506,-3.7567,-3.7547,-3.7572,-3.7579,-3.7585,-3.759,-3.7423,-3.7579,-3.7578,-3.7578,-3.7578,-3.7578,0,-3.6966,-3.6995,-3.7054,-3.7118,-3.7169,-3.7155,-3.7205,-3.7249,-3.7316,-3.736,-3.7414,-3.7496,-3.7562,-3.7595,-3.7661,-3.7703,-3.77,-3.772,-3.7716,-3.7723,-3.7604,-3.7582,-3.7721,-3.7721,-3.7721,-3.7721,-3.7721,-3.7721,-3.7049,-3.7135,-3.7147,-3.7252,-3.728,-3.7354,-3.7385,-3.7425,-3.7461,-3.7551,-3.7606,-3.7627,-3.7668,-3.7737,-3.7797,-3.7805,-3.783,-3.7852,-3.7858,-3.7746,-3.7731,-3.7717,-3.7696,-3.7858,-3.7858,-3.7972,-3.7973,-3.7974]},{"header":{"parameterUnit":"m.s-1","parameterCategory":1,"la1":30.2991,"la2":30.254,"lo1":-89.0895,"lo2":-89.0444,"dy":0.0017,"dx":0.0017,"nx":28,"ny":28,"refTime":"2024-04-14T21:00:00:Z","depth":0,"parameterNumber":3,"parameterNumberName":"V-component_of_WINDS"},"data":[0,0,0,0,0,0,0,0,0,0,0,0,0,0,0,0,0,0,0,0,0,0,0,0,0,0,0,0,0,0,0,0,0,0,0,0,0,0,0,0,0,0,0,0,0,0,0,0,0,0,0,0,0,0,0,0,0,0,1.9249,1.925,0,1.9258,1.9258,1.9258,1.9229,1.9228,1.9227,1.9227,1.9234,1.9235,1.9236,0,0,0,0,0,0,0,0,0,0,0,0,0,1.9208,1.9209,1.9249,1.925,1.925,1.9258,1.9258,1.9258,1.9229,1.9228,1.9227,1.9226,1.9234,1.9235,1.9236,0,0,0,0,0,0,0,0,0,0,0,0,0,1.9222,1.9209,1.9249,1.9236,1.9235,1.9258,1.9258,1.9258,1.9229,1.9228,1.9227,1.9226,1.9234,1.9235,1.9237,1.9272,0,0,1.9241,1.9242,0,0,0,0,0,0,0,0,1.9221,1.9224,1.9238,1.9237,1.9236,1.9241,1.9246,1.9263,1.923,1.9232,1.9227,1.9225,1.9238,1.9239,1.9243,1.9273,1.9273,1.9241,1.9242,1.9243,1.9243,0,0,0,0,0,0,0,1.9221,1.9223,1.9253,1.9238,1.9237,1.923,1.923,1.9249,1.9242,1.9231,1.9229,1.9231,1.9237,1.9242,1.9243,1.9273,1.9241,1.9243,1.9244,1.9244,1.9333,1.9335,0,0,0,0,0,0,1.9221,1.9223,1.9252,1.9253,1.9225,1.9232,1.9232,1.9241,1.9242,1.924,1.9232,1.9229,1.924,1.9241,1.9243,1.9286,1.9243,1.9244,1.9245,1.9332,1.9334,1.9335,0,0,0,0,0,0,1.9221,1.9224,1.9252,1.9237,1.924,1.9234,1.9244,1.9242,1.9247,1.9242,1.924,1.9238,1.9239,1.9241,1.9266,1.9286,1.9245,1.9247,1.933,1.9332,1.9334,1.9371,0,0,0,0,0,0,1.922,1.9224,1.9238,1.9238,1.9241,1.9274,1.9245,1.9243,1.9249,1.9246,1.9248,1.9247,1.9238,1.9263,1.9267,1.9287,1.9248,1.9328,1.9331,1.9334,1.9368,1.9374,1.9379,0,0,0,0,0,1.9218,1.9247,1.9238,1.9242,1.9258,1.9276,1.9277,1.9267,1.9251,1.9265,1.9262,1.9246,1.9283,1.9266,1.927,1.9291,1.9327,1.933,1.9333,1.9365,1.9372,1.9379,0,0,0,0,0,0,1.9248,1.9247,1.9237,1.9267,1.9272,1.9271,1.9287,1.9275,1.9285,1.9281,1.9268,1.9268,1.9295,1.9295,1.9277,1.9326,1.9302,1.9306,1.9325,1.9332,1.9337,1.9337,1.9249,0,0,0,0,0,1.9259,1.9273,1.9271,1.9298,1.9301,1.9294,1.9301,1.9293,1.9297,1.9299,1.9298,1.9302,1.9315,1.9323,1.9334,1.9367,1.9368,1.9384,1.9389,1.9394,1.9398,1.9416,1.9424,1.9346,1.9346,1.9346,0,0,1.928,1.9281,1.9291,1.9304,1.9306,1.9322,1.9295,1.9313,1.9324,1.9301,1.9325,1.9324,1.9328,1.9358,1.937,1.9358,1.942,1.9398,1.9402,1.9403,1.942,1.9428,1.9434,1.9348,1.9348,1.9347,0,0,1.9326,1.9328,1.9351,1.9355,1.936,1.9355,1.9361,1.9362,1.9361,1.9384,1.9368,1.9381,1.9403,1.9407,1.9412,1.9461,1.9448,1.9465,1.9495,1.9513,1.9519,1.9525,1.9543,1.955,1.9469,1.9469,1.9469,0,1.9352,1.9375,1.9364,1.9383,1.939,1.9371,1.9394,1.9398,1.9406,1.9411,1.9397,1.9425,1.9426,1.9457,1.9469,1.9474,1.948,1.9465,1.952,1.9525,1.953,1.9547,1.9554,1.9471,1.9471,1.9471,1.9471,0,1.9407,1.9423,1.9441,1.945,1.9459,1.948,1.9472,1.9482,1.9474,1.9471,1.9495,1.9497,1.9508,1.9515,1.9506,1.9544,1.9537,1.9522,1.9498,1.9539,1.9556,1.9562,1.9474,1.9474,1.9473,1.9473,0,0,1.9472,1.9476,1.9483,1.9487,1.9492,1.9504,1.9525,1.9537,1.9546,1.9552,1.9569,1.9589,1.9575,1.9581,1.9573,1.9589,1.9629,1.9572,1.9572,1.9583,1.9672,1.9684,1.9692,1.962,1.9621,1.9622,1.9672,0,1.9518,1.9554,1.9545,1.9581,1.9596,1.9578,1.9596,1.9601,1.9599,1.9612,1.961,1.9624,1.9605,1.9608,1.9623,1.9621,1.9647,1.9617,1.9636,1.9637,1.9636,1.97,1.9712,1.9759,1.9678,1.9679,1.968,0,1.9577,1.9587,1.9624,1.9627,1.9633,1.965,1.966,1.9673,1.9678,1.9676,1.9683,1.9672,1.9692,1.9669,1.9697,1.9677,1.9684,1.9685,1.9686,1.9688,1.9661,1.9704,1.9773,1.978,1.969,1.9689,1.9688,0,1.9622,1.9644,1.967,1.9674,1.9678,1.969,1.9692,1.9696,1.9705,1.9714,1.9719,1.9731,1.9737,1.9746,1.9739,1.9722,1.9769,1.9744,1.9768,1.9768,1.9779,1.9778,1.9851,1.9783,1.9783,1.9783,1.9782,0,1.9675,1.9698,1.969,1.9706,1.9732,1.9722,1.9748,1.9748,1.9752,1.9768,1.9753,1.9768,1.9757,1.9771,1.9765,1.979,1.9793,1.9792,1.979,1.9793,1.9794,1.9798,1.9795,1.9784,1.9784,1.9784,1.9783,0,1.9729,1.9724,1.9751,1.9753,1.9754,1.9774,1.9775,1.979,1.9787,1.9807,1.9811,1.9807,1.9823,1.9817,1.9833,1.9829,1.9862,1.9855,1.986,1.9858,1.9883,1.9881,1.9961,1.9971,1.9896,1.9897,1.9898,0,1.9763,1.9781,1.9786,1.9796,1.9799,1.9815,1.9823,1.9814,1.9824,1.9832,1.9846,1.9861,1.9872,1.9898,1.9896,1.9909,1.9904,1.9931,1.9905,1.9908,1.9905,1.9904,1.9906,1.9936,1.9937,1.9938,1.9938,0,1.9825,1.9822,1.9835,1.9848,1.9859,1.9869,1.9877,1.9885,1.9877,1.9889,1.9905,1.9914,1.9931,1.9946,1.9958,1.996,1.9948,1.9946,1.9953,1.9956,1.9959,1.9958,1.9874,1.9944,1.9944,1.9943,1.9943,1.9943,1.9871,1.9887,1.9893,1.9908,1.9913,1.9922,1.9936,1.9936,1.9949,1.9963,1.9957,1.9976,1.9982,1.9997,2.0001,2.0016,2.0005,2.0014,2.0016,2.0019,2.0022,1.9956,2.0017,2.0017,2.0017,2.0017,2.0017,0,1.9933,1.9936,1.995,1.9963,1.9975,1.9963,1.9972,1.9983,2.0,2.0007,2.0019,2.0038,2.0053,2.0053,2.0066,2.0078,2.0073,2.0082,2.0082,2.0082,2.003,2.0024,2.0086,2.0086,2.0086,2.0086,2.0086,2.0086,1.9966,1.9992,1.999,2.0019,2.0022,2.0041,2.0047,2.0055,2.006,2.0083,2.0095,2.0095,2.0099,2.0114,2.0127,2.0126,2.0132,2.0144,2.0141,2.0093,2.0086,2.0079,2.0073,2.0145,2.0145,2.0192,2.0193,2.0193]}]]